Location: Arbon
(43.0005°N, 0.7472°E)
Time: 03:37:21
(UTC+00:00)

Cosmos 2237 Rocket - Pass Details

Date: 07 August 2020
Orbit: 836 x 848 km, 71.0° (Epoch: 27 September)

Event Time Altitude Azimuth Distance (km) Brightness Sun altitude
Rises 00:49:56 0° 339° (NNW) 3,409 6.1 -29.7°
Reaches altitude 10° 00:52:30 10° 346° (NNW) 2,468 5.3 -29.6°
Maximum altitude 00:57:56 46° 59° (ENE) 1,116 3.0 -29.3°
Enters shadow 00:59:13 39° 96° (E) 1,231 3.0 -29.3°
